User: anonymous   Login
Location: Unspecified
(0.0000°N, 0.0000°E)
Time: 00:04:08
(UTC+00:00)
Language:

YUBILEINY - Orbit

View from above orbital plane
View from above orbital plane
View from above satellite
View from above satellite

Ground track
Ground track

The orbit data is extracted from the following two-line orbital elements,

1 32953U 08025A   17172.62945224 +.00000029 +00000-0 +13626-3 0  9991
2 32953 082.5031 236.8901 0017581 275.1162 084.7911 12.43077267411979
Epoch (UTC): 21 June 2017 15:06:24
Eccentricity: 0.0017581
inclination: 82.5031°
perigee height: 1480 km
apogee height: 1507 km
right ascension of ascending node: 236.8901°
argument of perigee: 275.1162°
revolutions per day: 12.43077267
mean anomaly at epoch: 84.7911°
orbit number at epoch: 41197

The dashed part of the orbit path shows where the satellite is in the earth's shadow,  

DLR